Overview Statistics Trail Chart Weather Telemetry Raw packets
 

This is the latest recevied weather packets stored in our database for station/object KB9HUO. If no packets are shown the sender has not sent any weather packets the latest 10 day(s).

<< 41 42 43 44 45 46 47 >>
Time Temp. Humidity Pressure Rain* Wind** Luminosity Snow
1788389592 32.78° C 61% 1017 hPa 0 mm - 23 W/m² -
1788389290 32.78° C 60% 1017.1 hPa 0 mm - 24 W/m² -
1788388985 33.33° C 61% 1016.9 hPa 0 mm - 25 W/m² -
1788388681 33.33° C 59% 1017 hPa 0 mm - 26 W/m² -
1788388381 33.33° C 60% 1017.2 hPa 0 mm - 26 W/m² -
1788388075 33.33° C 59% 1017.1 hPa 0 mm - 27 W/m² -
1788387774 33.33° C 58% 1017.2 hPa 0 mm - 27 W/m² -
1788387468 33.33° C 58% 1017.1 hPa 0 mm - 29 W/m² -
1788387168 33.89° C 58% 1017.3 hPa 0 mm - 31 W/m² -
1788386864 33.89° C 57% 1017.1 hPa 0 mm - 30 W/m² -
1788386558 33.89° C 59% 1017.1 hPa 0 mm - 30 W/m² -
1788386254 33.89° C 58% 1017.2 hPa 0 mm - 48 W/m² -
1788385949 33.89° C 58% 1017.1 hPa 0 mm - 34 W/m² -
1788385644 33.89° C 57% 1017.3 hPa 0 mm - 87 W/m² -
1788385342 33.89° C 57% 1017.2 hPa 0 mm - 34 W/m² -
1788385039 33.89° C 57% 1017.2 hPa 0 mm - 36 W/m² -
1788384738 34.44° C 56% 1017.2 hPa 0 mm - 36 W/m² -
1788384438 34.44° C 55% 1017.5 hPa 0 mm - 90 W/m² -
1788384135 34.44° C 57% 1017.3 hPa 0 mm - 37 W/m² -
1788383831 34.44° C 54% 1017.5 hPa 0 mm - 38 W/m² -
1788383526 34.44° C 55% 1017.4 hPa 0 mm - 39 W/m² -
1788383226 34.44° C 55% 1017.4 hPa 0 mm - 39 W/m² -
1788382921 34.44° C 54% 1017.3 hPa 0 mm - 42 W/m² -
1788382614 34.44° C 55% 1017.5 hPa 0 mm - 42 W/m² -
1788382309 34.44° C 53% 1017.2 hPa 0 mm - 44 W/m² -

* Rain latest hour (hover to see other rain measurements)
** Current wind speed in m/s (hover to see current wind gust speed)